When you browse on this site, cookies collect data to enhance your experience and personalize the content and advertising you see.
Visit our Privacy Policy to learn more. By continuing to use the site, you agree to this use of cookies and data.
  • în România
  • Lista ţărilor
  • Pe 7 zile
  • Temperatura apei
  • Meteo pe hartă
  • Widget-uri
  • user-avatar
    Intrare

    Meteo pe oră la São Paulo

    Astăzi, 20 Ianuarie, Luni

    Timp Temperatura Precipitaţii Vânt Presiune Umiditate
    00:00 +21°C° 0 mm 3 m/s 698 mmHg 85%
    01:00 +21°C° 0 mm 2 m/s 698 mmHg 86%
    02:00 +20°C° 0 mm 2 m/s 698 mmHg 86%
    03:00 +20°C° 0 mm 2 m/s 697 mmHg 87%
    04:00 +20°C° 0 mm 2 m/s 697 mmHg 87%
    05:00 +20°C° 0 mm 2 m/s 697 mmHg 87%
    06:00 +20°C° 0 mm 2 m/s 697 mmHg 86%
    07:00 +21°C° 0 mm 2 m/s 698 mmHg 83%
    08:00 +23°C° 0 mm 2 m/s 698 mmHg 80%
    09:00 +23°C° 0 mm 2 m/s 699 mmHg 77%
    10:00 +25°C° 0.1 mm 2 m/s 699 mmHg 71%
    11:00 +27°C° 0.1 mm 3 m/s 699 mmHg 66%
    12:00 +28°C° 0.1 mm 3 m/s 698 mmHg 60%
    13:00 +28°C° 0.1 mm 3 m/s 698 mmHg 62%
    14:00 +28°C° 0.1 mm 4 m/s 698 mmHg 64%
    15:00 +27°C° 0.1 mm 4 m/s 697 mmHg 66%
    16:00 +26°C° 0.1 mm 4 m/s 697 mmHg 69%
    17:00 +25°C° 0.1 mm 5 m/s 696 mmHg 72%
    18:00 +23°C° 0.1 mm 5 m/s 696 mmHg 75%
    19:00 +22°C° 0 mm 4 m/s 696 mmHg 78%
    20:00 +21°C° 0 mm 4 m/s 697 mmHg 80%
    21:00 +20°C° 0 mm 3 m/s 697 mmHg 83%
    22:00 +20°C° 0 mm 3 m/s 697 mmHg 83%
    23:00 +20°C° 0 mm 3 m/s 697 mmHg 83%

    Mâine, 21 Ianuarie, Marţi

    Timp Temperatura Precipitaţii Vânt Presiune Umiditate
    00:00 +20°C° 0 mm 3 m/s 697 mmHg 84%
    01:00 +20°C° 0 mm 3 m/s 696 mmHg 85%
    02:00 +19°C° 0 mm 2 m/s 696 mmHg 86%
    03:00 +19°C° 0 mm 2 m/s 695 mmHg 87%
    04:00 +19°C° 0 mm 2 m/s 695 mmHg 87%
    05:00 +19°C° 0 mm 2 m/s 695 mmHg 87%
    06:00 +19°C° 0 mm 2 m/s 695 mmHg 87%
    07:00 +20°C° 0 mm 2 m/s 696 mmHg 83%
    08:00 +21°C° 0 mm 2 m/s 696 mmHg 78%
    09:00 +23°C° 0 mm 2 m/s 697 mmHg 73%
    10:00 +24°C° 0 mm 2 m/s 697 mmHg 69%
    11:00 +25°C° 0 mm 3 m/s 696 mmHg 65%
    12:00 +27°C° 0 mm 3 m/s 696 mmHg 60%
    13:00 +26°C° 0.1 mm 3 m/s 696 mmHg 63%
    14:00 +26°C° 0.1 mm 4 m/s 695 mmHg 66%
    15:00 +25°C° 0.1 mm 4 m/s 695 mmHg 69%
    16:00 +23°C° 0 mm 5 m/s 695 mmHg 71%
    17:00 +23°C° 0 mm 5 m/s 694 mmHg 73%
    18:00 +22°C° 0 mm 5 m/s 694 mmHg 76%
    19:00 +21°C° 0 mm 4 m/s 695 mmHg 78%
    20:00 +21°C° 0 mm 4 m/s 695 mmHg 80%
    21:00 +20°C° 0 mm 4 m/s 696 mmHg 82%
    22:00 +20°C° 0 mm 4 m/s 696 mmHg 84%
    23:00 +20°C° 0 mm 3 m/s 696 mmHg 85%

    Poimâine, 22 Ianuarie, Miercuri

    Timp Temperatura Precipitaţii Vânt Presiune Umiditate
    00:00 +19°C° 0 mm 3 m/s 696 mmHg 87%
    01:00 +20°C° 0 mm 3 m/s 695 mmHg 86%
    02:00 +20°C° 0 mm 3 m/s 695 mmHg 85%
    03:00 +20°C° 0 mm 3 m/s 694 mmHg 84%
    04:00 +20°C° 0 mm 3 m/s 694 mmHg 84%
    05:00 +20°C° 0 mm 3 m/s 694 mmHg 84%
    06:00 +19°C° 0 mm 2 m/s 695 mmHg 84%
    07:00 +21°C° 0 mm 3 m/s 695 mmHg 79%
    08:00 +22°C° 0 mm 3 m/s 695 mmHg 74%
    09:00 +24°C° 0 mm 3 m/s 696 mmHg 69%
    10:00 +25°C° 0 mm 3 m/s 696 mmHg 64%
    11:00 +27°C° 0 mm 3 m/s 696 mmHg 59%
    12:00 +28°C° 0 mm 3 m/s 696 mmHg 54%
    13:00 +27°C° 0.2 mm 4 m/s 695 mmHg 58%
    14:00 +27°C° 0.2 mm 4 m/s 695 mmHg 63%
    15:00 +26°C° 0.2 mm 4 m/s 694 mmHg 67%
    16:00 +25°C° 0.1 mm 4 m/s 694 mmHg 71%
    17:00 +23°C° 0.1 mm 4 m/s 694 mmHg 75%
    18:00 +22°C° 0.1 mm 4 m/s 694 mmHg 78%
    19:00 +21°C° 0.7 mm 4 m/s 694 mmHg 79%
    20:00 +21°C° 0.7 mm 4 m/s 695 mmHg 80%
    21:00 +20°C° 0.7 mm 4 m/s 695 mmHg 81%
    22:00 +20°C° 0 mm 4 m/s 695 mmHg 80%
    23:00 +20°C° 0 mm 4 m/s 695 mmHg 80%

    23 Ianuarie, Joi

    Timp Temperatura Precipitaţii Vânt Presiune Umiditate
    00:00 +20°C° 0 mm 3 m/s 695 mmHg 80%
    01:00 +19°C° 0.1 mm 3 m/s 694 mmHg 81%
    02:00 +19°C° 0.1 mm 3 m/s 694 mmHg 82%
    03:00 +19°C° 0.1 mm 3 m/s 693 mmHg 82%
    04:00 +19°C° 0 mm 3 m/s 693 mmHg 83%
    05:00 +19°C° 0 mm 3 m/s 694 mmHg 84%
    06:00 +19°C° 0 mm 2 m/s 694 mmHg 85%
    07:00 +19°C° 0.3 mm 2 m/s 694 mmHg 86%
    08:00 +19°C° 0.3 mm 2 m/s 694 mmHg 87%
    09:00 +19°C° 0.3 mm 2 m/s 695 mmHg 87%
    10:00 +19°C° 0.5 mm 3 m/s 695 mmHg 86%
    11:00 +19°C° 0.5 mm 3 m/s 694 mmHg 85%
    12:00 +19°C° 0.5 mm 3 m/s 694 mmHg 84%
    13:00 +19°C° 0.1 mm 3 m/s 694 mmHg 83%
    14:00 +20°C° 0.1 mm 3 m/s 694 mmHg 82%
    15:00 +20°C° 0.1 mm 4 m/s 693 mmHg 81%
    16:00 +20°C° 0 mm 4 m/s 693 mmHg 82%
    17:00 +19°C° 0 mm 4 m/s 693 mmHg 83%
    18:00 +19°C° 0 mm 4 m/s 693 mmHg 84%
    19:00 +19°C° 0 mm 3 m/s 693 mmHg 85%
    20:00 +19°C° 0 mm 3 m/s 694 mmHg 85%
    21:00 +18°C° 0 mm 3 m/s 694 mmHg 86%
    22:00 +18°C° 0 mm 3 m/s 694 mmHg 86%
    23:00 +18°C° 0 mm 3 m/s 693 mmHg 86%

    24 Ianuarie, Vineri

    Timp Temperatura Precipitaţii Vânt Presiune Umiditate
    00:00 +18°C° 0 mm 2 m/s 693 mmHg 85%
    01:00 +18°C° 0 mm 2 m/s 693 mmHg 87%
    02:00 +18°C° 0 mm 2 m/s 692 mmHg 88%
    03:00 +18°C° 0 mm 2 m/s 692 mmHg 89%
    04:00 +18°C° 0 mm 2 m/s 692 mmHg 88%
    05:00 +18°C° 0 mm 2 m/s 692 mmHg 87%
    06:00 +18°C° 0 mm 2 m/s 693 mmHg 86%
    07:00 +19°C° 0 mm 2 m/s 693 mmHg 79%
    08:00 +20°C° 0 mm 2 m/s 694 mmHg 71%
    09:00 +22°C° 0 mm 3 m/s 694 mmHg 63%
    10:00 +24°C° 0 mm 3 m/s 694 mmHg 59%
    11:00 +26°C° 0 mm 4 m/s 694 mmHg 54%
    12:00 +27°C° 0 mm 4 m/s 694 mmHg 50%
    13:00 +27°C° 0.1 mm 4 m/s 694 mmHg 51%
    14:00 +27°C° 0.1 mm 5 m/s 694 mmHg 52%
    15:00 +27°C° 0.1 mm 6 m/s 694 mmHg 53%
    16:00 +26°C° 0 mm 5 m/s 694 mmHg 58%
    17:00 +23°C° 0 mm 5 m/s 694 mmHg 63%
    18:00 +22°C° 0 mm 5 m/s 694 mmHg 68%
    19:00 +22°C° 0 mm 5 m/s 694 mmHg 72%
    20:00 +21°C° 0 mm 4 m/s 695 mmHg 76%
    21:00 +20°C° 0 mm 4 m/s 695 mmHg 80%
    22:00 +20°C° 0 mm 4 m/s 695 mmHg 81%
    23:00 +20°C° 0 mm 3 m/s 695 mmHg 82%

    25 Ianuarie, Sâmbătă

    Timp Temperatura Precipitaţii Vânt Presiune Umiditate
    00:00 +20°C° 0 mm 3 m/s 695 mmHg 83%
    01:00 +19°C° 0 mm 3 m/s 695 mmHg 84%
    02:00 +19°C° 0 mm 2 m/s 694 mmHg 85%
    03:00 +19°C° 0 mm 2 m/s 694 mmHg 85%
    04:00 +19°C° 0 mm 2 m/s 694 mmHg 86%
    05:00 +19°C° 0 mm 2 m/s 695 mmHg 87%
    06:00 +20°C° 0 mm 1 m/s 695 mmHg 87%
    07:00 +20°C° 0 mm 2 m/s 695 mmHg 80%
    08:00 +23°C° 0 mm 2 m/s 696 mmHg 72%
    09:00 +24°C° 0 mm 2 m/s 697 mmHg 64%
    10:00 +25°C° 0 mm 2 m/s 697 mmHg 60%
    11:00 +27°C° 0 mm 2 m/s 697 mmHg 56%
    12:00 +28°C° 0 mm 2 m/s 697 mmHg 52%
    13:00 +28°C° 0 mm 2 m/s 697 mmHg 52%
    14:00 +28°C° 0 mm 3 m/s 697 mmHg 52%
    15:00 +29°C° 0 mm 3 m/s 696 mmHg 52%
    16:00 +28°C° 0 mm 3 m/s 696 mmHg 57%
    17:00 +26°C° 0 mm 3 m/s 696 mmHg 62%
    18:00 +25°C° 0 mm 4 m/s 696 mmHg 67%
    19:00 +24°C° 0 mm 3 m/s 696 mmHg 71%
    20:00 +22°C° 0 mm 3 m/s 696 mmHg 75%
    21:00 +21°C° 0 mm 2 m/s 697 mmHg 79%
    22:00 +21°C° 0 mm 2 m/s 697 mmHg 79%
    23:00 +20°C° 0 mm 2 m/s 697 mmHg 79%
    Arată mai mult